Погода в Ёгле

Россия / Новгородская область     58°19′05″N   33°58′55″E
темп.,
°C
ветер,
м/с
пор.,
м/с
влажн.,
%
обл.,
%
осадки,
мм/ч
давл.,
гПа
погр.,
м
12 мая, ср
ср1200:00+10юв38850 0.0 1026149
03:00+8юв24880 0.0 102669
06:00+10юв24830 0.0 1026109
09:00+18ююв24625 0.0 1026420
12:00+22ююв35450 0.0 10251365
15:00+24юв35377 0.0 10232456
18:00+23в36460 0.0 10211284
21:00+16всв3107725 0.0 1020215
13 мая, чт
чт1300:00+14вюв3118455 0.3 1020462
03:00+13вюв4118955 0.3 1019667
06:00+14юв498124 0.0 10191024
09:00+15юв47595 0.1 10191037
12:00+18юв46425 0.0 10171699
15:00+20юв473810 0.0 10152083
18:00+18юв2654100 0.0 1013364
21:00+13юв2884100 0.6 1012198
14 мая, пт
пт1400:00+10ю399155 0.6 1013535
03:00+7ююв389811 0.6 1013240
06:00+8ююв399622 0.0 1014325
09:00+13ю477125 0.0 1014807
12:00+17ю4648100 0.0 10141607
15:00+18ююв464898 0.0 10131840
18:00+17юв375889 0.0 1012880
21:00+12вюв388329 0.0 1011160
15 мая, сб
сб1500:00+11вюв279576 0.0 1010128
03:00+10юв279843 0.3 1008154
06:00+12юв38969 0.1 1008247
09:00+17ю357499 0.1 1008533
12:00+22ююз24505 0.0 10071464
15:00+23ююв344699 0.0 10061708
18:00+18ююз4773100 1.6 1005214
21:00+15ююв239196 1.9 100563
16 мая, вс
вс1600:00+13ю2392100 0.0 100558
03:00+13ююз2394100 0.0 100563
06:00+13юз1394100 0.3 1006108
09:00+14з2394100 1.6 1007283
12:00+15ююз2591100 0.2 1009433
15:00+17зюз357992 2.6 1009832
18:00+16з2488100 3.5 1010469
21:00+13юз279899 4.9 1011238